Preview of NWS' New Version of Forecast
This preview is not operational and should not be used for support decisions.

Regional Weather Roundup (RWR)

Issued by National Weather Service (NWS)

                            
000
ASPQ40 PGUM 180810
RWRPQ 
WEATHER ROUNDUP FOR THE MARIANAS AND MICRONESIA
NATIONAL WEATHER SERVICE TIYAN GU
600 PM CHST THU APR 18 2019

GUZ001>004-180900-
MARIANA ISLANDS-
  
CITY           SKY/WX    TMP DP  RH WIND       PRES   REMARKS
GUAM AIRPORT   PTCLDY    82  70  65 E14       29.89R                  
ANDERSEN AFB   PTCLDY    81  70  69 E13       29.89R                  
ROTA AIRPORT   PTCLDY    81  72  74 E14       29.88R                  
TINIAN AP      PTCLDY    84  72  65 E10       29.87R                  
SAIPAN AP      PTCLDY    82  72  69 NE10      29.88S                  

$$

PMZ161-180900-
REPUBLIC OF PALAU-
  
CITY           SKY/WX    TMP DP  RH WIND       PRES   REMARKS
KOROR AP       PTSUNNY   84  75  74 NE7       29.84R HX  92           
KOROR WSO      NOT AVBL                                               

$$

PMZ171>174-180900-
FEDERATED STATES OF MICRONESIA-
  
CITY           SKY/WX    TMP DP  RH WIND       PRES   REMARKS
YAP AIRPORT    PTSUNNY   84  79  84 NE9       29.84R HX  96           
CHUUK AP       CLOUDY    82  77  83 VRB5      29.81R HX  91           
POHNPEI AP     NOT AVBL                                               
POHNPEI WSO    LGT RAIN  82  77  83 E8        29.86R HX  91           
KOSRAE AP      NOT AVBL                                               

$$

PMZ181-180900-
REPUBLIC OF THE MARSHALL ISLANDS-
  
CITY           SKY/WX    TMP DP  RH WIND       PRES   REMARKS
KWAJALEIN AP   MOCLDY    82  73  74 E15       29.86R                  
MAJURO AP      NOT AVBL                                               
MAJURO WSO     PTCLDY    82  75  78 E15       29.83R                  

$$